www.pogodaiklimat.ru

Погода и климат >> Архив погоды >> Мексика >> Кампече


ПОГОДА в Кампече

  • Прогноз погоды в Кампече
  • Монитор погоды в Кампече

АРХИВ ПОГОДЫ в Кампече

Время (UTC), дата Ветер
(напр.,м/с)
 
Видим.   Явления Облачность Т
(С)
Тd
(С)
f
(%)
Тe
(С)
Тes
(С)
Комфортность P
(гПа)
Po
(гПа)
Тmin
(С)
Tmax
(С)
R
(мм)
R24
(мм)
S
(см)
12 11.07 ЮВ 1 10 км 1/0
[Ci fib]
+23.8 +23.0 95 +32 +32 очень
душно
1012.9 1012.4 +23.4 +36.8
15 11.07 ЮВ 2 10 км 3/1 480 м
[Cu hum Ci fib]
+30.6 +26.6 79 +47 +57 опасность
перегрева
1013.6 1013.1
18 11.07 ЮВ 2 10 км 3/1 900 м
[Cu hum Ci fib]
+34.8 +27.2 65 +53 +73 опасность
перегрева
1012.6 1012.1 +23.4 +35.0
21 11.07 В 2 10 км 4/3 960 м
[Cu med, cong Cs]
+36.4 +28.1 63 +57 +66 опасность
перегрева
1010.6 1010.0
00 12.07 С 2 10 км 8/1 540 м
[Cu med, cong Ci ing]
+31.8 +27.6 79 +51 +52 опасность
перегрева
1009.7 1009.1 +23.4 +37.0
03 12.07 СВ 2 6000 м зарница 8/8 540 м
[Cb cap]
+28.8 +26.1 85 +43 +43 опасность
перегрева
1012.0 1011.5
12 12.07 ЮВ 1 10 км 3/0
[Ci fib]
+23.8 +23.2 96 +32 +32 очень
душно
1010.9 1010.3 +23.5 +37.0
15 12.07 ЮВ 2 10 км 9/3 480 м
[Frnb Cs]
+30.6 +26.9 81 +48 +55 опасность
перегрева
1011.9 1011.3
18 12.07 ЮВ 3 10 км 8/5 800 м
[Cu hum Ci fib]
+34.4 +28.2 70 +55 +64 опасность
перегрева
1011.6 1011.0 +23.5 +34.6
21 12.07 ЮВ 3 10 км {дождь} 8/8 450 м
[Cb cap]
+30.0 +26.3 81 +46 +48 опасность
перегрева
1009.7 1009.2 7
00 13.07 С 1 10 км 6/0
[Ac trans Ci fib]
+30.4 +25.6 76 +45 +45 опасность
перегрева
1009.2 1008.7 +23.5 +36.0 7
03 13.07 ЮВ 2 6000 м 1/0
[Ci fib]
+27.6 +23.5 78 +37 +37 очень
душно
1010.4 1009.9
12 13.07 штиль 0 10 км 4/0
[Ci fib]
+23.8 +23.0 95 +32 +32 очень
душно
1011.5 1010.9 +23.5 +36.0
15 13.07 ЮВ 2 10 км 10/0
[Cs]
+28.8 +25.9 84 +43 +53 опасность
перегрева
1012.7 1012.1
18 13.07 ЮВ 3 10 км 10/0
[Ci fib]
+34.0 +27.5 69 +53 +68 опасность
перегрева
1012.3 1011.7 +23.5 +34.5
21 13.07 В 2 10 км 10/0
[As op]
+35.2 +27.4 64 +54 +57 опасность
перегрева
1010.9 1010.4
00 14.07 В 3 10 км 9/0
[Ac trans Ci fib]
+32.4 +25.8 68 +48 +48 опасность
перегрева
1010.3 1009.7 +23.5 +35.5
03 14.07 СВ 1 6000 м 3/0
[Ci fib]
+29.0 +25.2 80 +42 +42 опасность
перегрева
1011.9 1011.3
12 14.07 ЮВ 2 10 км ясно +24.9 +21 +21 комфорт 1012.7 1012.2 +24.2 +35.5
15 14.07 ЮВ 2 10 км 6/3 330 м
[Cu hum Ci fib]
+29.9 +26.6 83 +46 +54 опасность
перегрева
1014.3 1013.7
18 14.07 В 3 10 км 9/4 600 м
[Cu hum Ci]
+34.2 +27.7 69 +54 +63 опасность
перегрева
1013.8 1013.2 +24.2 +34.2
21 14.07 В 2 10 км 8/4 600 м
[Cu med, cong Ci]
+37.0 +29.1 64 +60 +67 опасность
перегрева
1011.3 1010.8
00 15.07 С 4 10 км 5/3 600 м
[Cu med, cong Ci]
+31.0 +26.5 77 +47 +48 опасность
перегрева
1011.4 1010.8 +24.2 +38.0
03 15.07 СВ 2 6000 м {морось} 3/1 540 м
[Cu hum Ci fib]
+29.4 +26.2 83 +45 +45 опасность
перегрева
1012.7 1012.1 0.8
12 15.07 ЮВ 2 10 км ясно +24.4 +23.4 94 +33 +33 очень
душно
1013.5 1012.9 +24.1 +38.0
15 15.07 ЮВ 2 10 км 1/1 400 м
[Cu hum]
+30.6 +26.6 79 +47 +58 опасность
перегрева
1014.6 1014.0
18 15.07 В 5 10 км 5/5 750 м
[Cu med, cong]
+34.8 +26.7 63 +52 +58 опасность
перегрева
1014.1 1013.5 +24.2 +35.5
21 15.07 В 3 10 км 3/3 870 м
[Cu med, cong]
+36.6 +27.7 60 +56 +63 опасность
перегрева
1012.0 1011.4
00 16.07 С 4 10 км 8/3 500 м
[Cb calv Ac trans]
+31.8 +27.9 80 +52 +52 опасность
перегрева
1011.4 1010.8 +24.1 +38.2
03 16.07 В 2 6000 м 3/0
[As trans]
+28.7 +26.4 87 +44 +44 опасность
перегрева
1014.0 1013.4
06 16.07 В 2 6000 м ясно +27.4 +24.7 85 +39 +39 очень
душно
1014.5 1014.0 +24.1 +38.2
09 16.07 В 2 6000 м ясно +25.8 +23.3 86 +35 +35 очень
душно
1014.0 1012.8
12 16.07 ЮВ 2 10 км 3/0
[Ac trans]
+24.6 +23.2 92 +33 +33 очень
душно
1014.2 1013.7 +24.5 +38.2
18 16.07 ЮВ 2 10 км 6/4 600 м
[Cu med, cong Ac trans]
+33.8 +27.8 71 +54 +65 опасность
перегрева
1015.5 1014.9 +24.5 +34.9
21 16.07 ЮЗ 4 10 км дождь {ливн. осадки} 6/6 720 м
[Cb calv]
+35.4 +28.2 66 +56 +60 опасность
перегрева
1013.3 1012.7 10
00 17.07 СВ 1 10 км 10/3 <50 м
[Cb calv As op]
+27.6 +24.0 81 +38 +38 очень
душно
1014.7 1014.1 +24.5 +36.8 0.0
03 17.07 СВ 1 6000 м {морось} 10/0
[As op]
+25.8 +24.2 91 +36 +36 очень
душно
1015.5 1014.9 0.1
06 17.07 В 3 6000 м {морось} 5/0
[Ci fib]
+25.6 +24.0 91 +35 +35 очень
душно
1016.2 1015.7 +24.5 +36.8 1
09 17.07 В 2 6000 м 8/0
[Cs]
+25.0 +23.6 92 +34 +34 очень
душно
1014.8 1014.2
12 17.07 В 2 10 км 9/0
[Ac trans]
+24.6 +23.5 94 +33 +33 очень
душно
1015.3 1014.7 +24.2 +36.8
15 17.07 В 2 10 км 6/0
[Ac und]
+28.8 +26.1 85 +43 +50 опасность
перегрева
1016.4 1015.9
18 17.07 В 2 10 км 8/5 660 м
[Cu med, cong Cs]
+33.2 +27.5 72 +52 +62 опасность
перегрева
1016.1 1015.5 +24.2 +33.4
21 17.07 СВ 3 10 км 6/3 900 м
[Cu med, cong Cs]
+35.5 +27.6 64 +55 +62 опасность
перегрева
1013.5 1012.9

 

Местоположение метеостанции Кампече (Мексика): широта 19.85 долгота -90.55 высота над уровнем моря 5 м.

В архиве по умолчанию представлена погода в Кампече за последнюю неделю. Архивные данные за месяц целиком и за предыдущие месяцы, начиная с января 2011 года, Вы можете получить, выбрав интересующий диапазон дат из раскрывающегося списка и нажав кнопку "Ввод!".


*Определитесь, кто Вы:
робот инопланетянин человек

Внимание! Время в таблицах - всемирное. Для получения местного времени необходимо прибавить поправку, которая равна -6 ч.

Смотрите также архив погоды в соседних городах и на ближайших метеорологических станциях:

Погода в Мериде 2 (Мексика) (156 км)
Погода в Мериде (Мексика) (157 км)
Погода в Прогресо (Мексика) (187 км)
Погода в Вальядолиде (Мексика) (262 км)
Погода в Фелипе-Каррильо-Пуэрто (Мексика) (278 км)
Погода в Четумале (Мексика) (281 км)
Погода в Вильяэрмосе (Мексика) (326 км)
Погода во Флоресе (Гватемала) (333 км)
Погода в Белизе (Белиз) (350 км)
Погода в Сан-Кристобаль-де-лас-Касасе (Мексика) (409 км)

Пояснения к столбцам:

Ветер - указаны скорость ветра в м/с - средняя за 10 мин, порывы в срок и между сроками (в фигурных скобках) и направление, откуда дует ветер: С - северный, СВ - северо-восточный, В - восточный, ЮВ - юго-восточный, Ю - южный, ЮЗ - юго-западный, З - западный, СЗ - северо-западный.
Видимость - горизонтальная дальность видимости в метрах или километрах. При видимости от 1 до 10 км при отсутствии осадков обычно наблюдается дымка, при ухудшении видимости до 1 км и менее - туман. В сухую погоду видимость может ухудшаться дымом, пылью или мглою.
Явления - указаны атмосферные явления, наблюдавшиеся в срок или в последний час перед сроком; фигурными скобками обозначены явления, наблюдавшиеся между сроками (за 1-3 часа до срока); квадратными скобками обозначены град или гололедные отложения с указанием их диаметра в мм.
Облачность - указаны через наклонную черту общая и нижняя облачность в баллах и высота нижней границы облаков в метрах; квадратными скобками обозначены формы облаков: Ci - перистые, Cs - перисто-слоистые, Cc - перисто-кучевые, Ac - высококучевые, As - высокослоистые, Sc - слоисто-кучевые, Ns - слоисто-дождевые, Cu - кучевые, Cb - кучево-дождевые. Подробнее классификацию облаков см. в Атласе облаков (PDF).
T - Температура воздуха - температура, измеренная на высоте 2 м над землей.
Td - Температура точки росы - температура, при понижении до которой содержащийся в воздухе водяной пар достигнет насыщения.
f - Относительная влажность воздуха - влажноcть воздуха, измеренная на высоте 2 м над землей.
Te - Эффективная температура - температура, которую ощущает одетый по сезону человек в тени. Характеристика душности погоды. При расчете учитывается влияние влажности воздуха и скорости ветра на теплоощущения человека.
Tes - Эффективная температура на солнце - температура, которую ощущает человек, с поправкой на солнечный нагрев. Характеристика знойности погоды. Зависит от высоты солнца над горизонтом, облачности и скорости ветра. Ночью, в пасмурную погоду, а также при ветре 12 м/с и более поправка равна нулю.
P - Атмосферное давление - приведенное к уровню моря атмосферное давление.
Po - Атмосферное давление - измеренное на уровне метеостанции атмосферное давление.
Tmin - Минимальная температура - минимум температуры воздуха на высоте 2 м над землей.
Tmax - Максимальная температура - максимум температуры воздуха на высоте 2 м над землей.
R - Количество осадков - Количество выпавших осадков за период времени, мм. При наведении курсора мыши на число - период времени, за который выпало указанное количество осадков.
R24 - Количество осадков - Количество выпавших осадков за 24 часа, мм.
S - Снежный покров - Высота снежного покрова, см. При наведении курсора мыши на число - состояние снежного покрова и степень покрытия местности в баллах.